Location: Unspecified
(0.0000°N, 0.0000°E)
Time: 06:15:33
(UTC+02:00)

NOAA 12 - Pass Details

Date: 25 June 2018
Orbit: 795 x 815 km, 98.5° (Epoch: 19 September)

Event Time Altitude Azimuth Distance (km) Brightness Sun altitude
Rises 07:31:03 0° 53° (NE) 3,315 9.3 -7.2°
Reaches altitude 10° 07:35:36 10° 90° (E) 2,383 7.8 -6.2°
Maximum altitude 07:36:46 11° 103° (ESE) 2,332 7.4 -5.9°
Drops below altitude 10° 07:37:56 10° 116° (ESE) 2,382 7.2 -5.7°
Sets 07:42:26 0° 152° (SSE) 3,310 7.3 -4.6°
